This is the latest recevied weather packets stored in our database for station/object GBTWP-2. If no packets are shown the sender has not sent any weather packets the latest 1 day(s).
| Time | Temp. | Humidity | Pressure | Rain* | Wind** | Luminosity | Snow |
|---|---|---|---|---|---|---|---|
| 1777996802 | 10° C | 80% | 1009.5 hPa | 0 mm | 0.45 m/s, 168° | 119 W/m² | - |
| 1777996202 | 9.44° C | 81% | 1009.5 hPa | 0 mm | 0 m/s | 95 W/m² | - |
| 1777995902 | 9.44° C | 81% | 1009.5 hPa | 0 mm | 0 m/s | 107 W/m² | - |
| 1777994702 | 8.89° C | 82% | 1009.5 hPa | 0 mm | 0.89 m/s, 63° | 41 W/m² | - |
| 1777994402 | 8.89° C | 80% | 1009.6 hPa | 0 mm | 0.89 m/s, 241° | 44 W/m² | - |
| 1777994102 | 8.89° C | 82% | 1009.5 hPa | 0 mm | 0.45 m/s, 49° | 61 W/m² | - |
| 1777993802 | 8.89° C | 81% | 1009.5 hPa | 1.78 mm | 0.45 m/s, 69° | 66 W/m² | - |
| 1777992901 | 8.89° C | 76% | 1009.4 hPa | 0 mm | 0 m/s | 28 W/m² | - |
| 1777992302 | 8.89° C | 75% | 1009 hPa | 0 mm | 0 m/s | 32 W/m² | - |
| 1777992001 | 9.44° C | 76% | 1009 hPa | 0 mm | 0.45 m/s, 341° | 32 W/m² | - |
| 1777991702 | 9.44° C | 74% | 1008.9 hPa | 0 mm | 0 m/s | 36 W/m² | - |
| 1777991102 | 9.44° C | 70% | 1009 hPa | 0 mm | 0 m/s | 32 W/m² | - |
| 1777990802 | 9.44° C | 71% | 1009.1 hPa | 0 mm | 0.45 m/s, 43° | 30 W/m² | - |
| 1777990501 | 9.44° C | 72% | 1009 hPa | 0 mm | 0 m/s | 30 W/m² | - |
| 1777989602 | 9.44° C | 74% | 1008.9 hPa | 0 mm | 0 m/s | 91 W/m² | - |
| 1777989001 | 8.89° C | 77% | 1009.2 hPa | 0 mm | 0 m/s | 52 W/m² | - |
| 1777988702 | 8.89° C | 76% | 1009.1 hPa | 0 mm | 0 m/s | 21 W/m² | - |
| 1777988401 | 8.89° C | 75% | 1008.3 hPa | 0 mm | 0 m/s | 24 W/m² | - |
| 1777988102 | 8.89° C | 75% | 1008.2 hPa | 0 mm | 0 m/s | 36 W/m² | - |
| 1777987202 | 9.44° C | 70% | 1008.2 hPa | 0 mm | 0 m/s | 10 W/m² | - |
| 1777986901 | 9.44° C | 68% | 1007.6 hPa | 0 mm | 0.45 m/s, 49° | 11 W/m² | - |
| 1777986602 | 9.44° C | 69% | 1007.4 hPa | 0 mm | 0 m/s | 32 W/m² | - |
| 1777986302 | 9.44° C | 68% | 1007.4 hPa | 0 mm | 0.45 m/s, 25° | 19 W/m² | - |
| 1777985401 | 9.44° C | 70% | 1007.1 hPa | 0 mm | 0 m/s | 25 W/m² | - |
| 1777984802 | 10° C | 67% | 1007.2 hPa | 0 mm | 0.45 m/s, 29° | 23 W/m² | - |
* Rain latest hour (hover to see other rain measurements)
** Current wind speed in m/s (hover to see current wind gust speed)